Weather Service Report


782 
ASUS45 KPSR 232010
RWRAZ 

ARIZONA HOURLY REGIONAL WEATHER ROUNDUP
NATIONAL WEATHER SERVICE PHOENIX AZ
100 PM MST SUN FEB 23 2020

NOTE: FAIR INDICATES FEW OR NO CLOUDS BELOW 12,000 FEET WITH NO
SIGNIFICANT WEATHER AND/OR OBSTRUCTIONS TO VISIBILITY.

AZZ001>003-036-232100-
NORTHWEST ARIZONA
  
CITY           SKY/WX    TMP DP  RH WIND       PRES   REMARKS
BULLHEAD CITY  MOSUNNY   64  54  68 CALM      30.16F                  
KINGMAN        SUNNY     56  42  59 N6        30.17F                  
$$

AZZ004>008-015-016-018-232100-
NORTH CENTRAL ARIZONA
  
CITY           SKY/WX    TMP DP  RH WIND       PRES   REMARKS
GRAND CANYON   CLOUDY    35  31  85 VRB6      30.13F WCI  30          
WILLIAMS       CLOUDY    37  34  87 NW13      30.15F WCI  29          
PRESCOTT       PTSUNNY   45  35  68 NW17      30.16F                  
FLAGSTAFF      CLOUDY    34  31  88 W8        30.12F FOG     WCI  27  
PAYSON         CLOUDY    41  36  81 W8        30.17F                  
PAGE           PTSUNNY   50  35  56 NW8       30.08F                  
$$

AZZ009>014-017-232100-
NORTHEAST ARIZONA
  
CITY           SKY/WX    TMP DP  RH WIND       PRES   REMARKS
WINSLOW        CLOUDY    47  34  60 W20G30    30.11S                  
SAINT JOHNS    CLOUDY    43  31  62 W22G29    30.09F                  
WINDOW ROCK    LGT SNOW  36  32  85 SW12      30.05F VSB 1   WCI  28  
SHOW LOW       CLOUDY    39  34  81 SW18      30.14F WCI  30          
$$

AZZ540-542>544-546-548-232100-
GREATER PHOENIX AREA
  
CITY           SKY/WX    TMP DP  RH WIND       PRES   REMARKS
PHOENIX        PTSUNNY   60  42  51 VRB3      30.17F                  
BUCKEYE        SUNNY     61  45  55 CALM      30.19F                  
GLENDALE       MOSUNNY   61  43  51 SW3       30.20F                  
LUKE AFB       SUNNY     61  45  56 CALM      30.16F                  
DEER VALLEY    CLOUDY    54  41  61 CALM      30.18F                  
SCOTTSDALE     PTSUNNY   57  40  52 VRB3      30.19F                  
MESA-FALCON    CLOUDY    58  43  57 VRB5      30.18F                  
MESA-GATEWAY   MOSUNNY   57  43  58 VRB6      30.20F                  
CHANDLER       PTSUNNY   59  43  55 SW8       30.18F                  
$$

AZZ539-553-232100-
SOUTHWEST MARICOPA COUNTY AND PINAL COUNTY
  
CITY           SKY/WX    TMP DP  RH WIND       PRES   REMARKS
CASA GRANDE    MOSUNNY   61  44  53 NW9G16    30.19F                  
GILA BEND      FAIR      64  45  51 W10       30.17F                  
$$

AZZ503-504-507>509-232100-
SOUTHEAST ARIZONA
  
CITY           SKY/WX    TMP DP  RH WIND       PRES   REMARKS
TUCSON         CLOUDY    59  36  42 W8        30.19F                  
DAVIS-MONTHAN  PTSUNNY   56  38  51 CALM      30.17F                  
RYAN FIELD     SUNNY     61  39  44 NW10      30.20F                  
NOGALES        SUNNY     58  32  37 MISG      30.19F                  
SIERRA VISTA   PTSUNNY   54  29  38 W15       30.19F                  
SAFFORD        MOSUNNY   58  42  55 W14       30.13F                  
$$

AZZ532-232100-
SOUTHWEST ARIZONA
  
CITY           SKY/WX    TMP DP  RH WIND       PRES   REMARKS
YUMA           SUNNY     70  44  39 W13       30.17F                  
$$

CAZ041-043-047-048-061-525>527-560>570-232100-
SOUTHERN CALIFORNIA
  
CITY           SKY/WX    TMP DP  RH WIND       PRES   REMARKS
DOWNTOWN L.A.  MOSUNNY   66  48  52 CALM      30.28F                  
L.A. AIRPORT   MOSUNNY   62  49  62 SW10      30.29F                  
SAN DIEGO      PTSUNNY   65  49  56 NW8G17    30.30F                  
BURBANK        SUNNY     62  44  51 E7        30.27F                  
ONTARIO        PTSUNNY   59  48  67 W6        30.28F                  
RIVERSIDE      PTSUNNY   61  44  53 VRB3      30.28F                  
PALM SPRINGS   SUNNY     73  43  33 VRB5      30.17F                  
EL CENTRO NAS  SUNNY     75  38  26 VRB6      30.17F                  
BLYTHE         SUNNY     69  40  34 MISG      30.16F                  
NEEDLES        SUNNY     65  43  44 CALM      30.16F                  
$$

NVZ020-UTZ003-232100-
SOUTHERN NEVADA-UTAH
  
CITY           SKY/WX    TMP DP  RH WIND       PRES   REMARKS
LAS VEGAS      MOSUNNY   62  42  47 VRB3      30.15F                  
SALT LAKE CITY MOSUNNY   48  22  35 VRB3      30.12F                  
$$

NMZ009-TXZ055-232100-
NEW MEXICO-WEST TEXAS
  
CITY           SKY/WX    TMP DP  RH WIND       PRES   REMARKS
ALBUQUERQUE    CLOUDY    43  34  70 NW8       29.97F                  
EL PASO        MOSUNNY   62  22  21 W29G43    30.03F                  
$$


........................KEY........................
SKY/WX - SKY CONDITION/WEATHER
TMP    - TEMPERATURE IN FAHRENHEIT
DP     - DEW POINT IN FAHRENHEIT
RH     - RELATIVE HUMIDITY IN PERCENT
WIND   - DIRECTION AND SPEED IN MILES PER HOUR (MPH)
VRB    - VARIABLE WIND DIRECTION
PRES   - MEAN SEA LEVEL PRESSURE IN INCHES OF MERCURY
         F - FALLING PRESSURE   R - RISING PRESSURE
         S - STEADY PRESSURE
VSB    - VISIBILITY IN MILES
HX     - HEAT INDEX IN FAHRENHEIT
WCI    - WIND CHILL INDEX IN FAHRENHEIT
TC     - TEMPERATURE IN CELSIUS WHICH IS ALSO KNOWN AS
         TEMPERATURE IN CENTIGRADE
AFB    - AIR FORCE BASE
         LUKE AFB IS LUKE AIR FORCE BASE
         DAVIS-MONTHAN IS DAVIS-MONTHAN AIR FORCE BASE
NAS    - NAVAL AIR STATION
         EL CENTRO NAS IS EL CENTRO NAVAL AIR STATION
N/A    - NOT AVAILABLE

  

Return to Home page


Western Regional Climate Center, wrcc@dri.edu